STARLINK-35323, 66071

Orbit data source: Space-Track

STARLINK-35323, 66071 is a payload satellite owned by SpaceX/Seattle (US) in LEO that was launched on Sun, 19 Oct 2025 UTC via an FALCON 9 launch vehicle from the Air Force Eastern Test Range (AFETR). Payload-class satellites include a variety of spacecraft equipped with specific instruments for various scientific and technological missions. These include communications satellites like Starlink; space stations such as the ISS; scientific satellites like the Hubble; Earth observation satellites from companies like Planet Labs, Umbra, and HawkEye 360; GPS; miniature CubeSats for education and research; and military/defense satellites.

Loading next visibility...
Identifier
66071, 2025-235P
Orbit
LEO
Country
Flag of USUS
Related business
Manufacturer
SpaceX/Seattle
Mission
Operational Commercial Communications
Bus & Motor
STARLINK V2MO, Unknown motor
Mass
575 kg wet, ~530 kg dry
Launch date (UTC)
2025-10-19 (8 months ago)
Launch vehicle
FALCON 9
Launch site
Air Force Eastern Test Range (AFETR)
Object type
Payload
Rocket body
Debris
Shape & HBR
Box + 2 Pan, 17.7 m
Radar Cross Section
36.964 m², Large (>1 m²)

Expand to show TLE details & history
Last TLE update: 2 days ago

TLE from 2 days ago
0 STARLINK-35323
1 66071U 25235P   26170.17774369  .00016736  00000-0  57582-3 0  9990
2 66071  53.1586 133.5880 0001200  83.8303 276.2835 15.30204907 38461
Epoch: 2026-06-19T04:15Z
TLE epoch observation values (Epoch: 2026-06-19T04:15:57.054Z)
Latitude
0.00001°
Longitude
162.18982°
Altitude
476.01 km
Speed
7.629 km/s
True Right ascension
08h 54m 21s
True Declination
0° 00' 00"
Sunlit
Object was in daylight at epoch
Visualization orbit readout
Latitude
Unknown
Longitude
Unknown
Altitude
Unknown
Speed
Unknown
Apparent Right ascension
Unknown
Apparent Declination
Unknown
Sunlit
N/A
Visualization observer readout
Local Sidereal Time
10:18:09
Azimuth
Unknown
Elevation
Unknown
Doppler factor
Unknown
Orbital elements
Apogee altitude
476.28 km
Perigee altitude
474.635 km
Semi-major axis
6,853.594 km
Eccentricity
0.00012
Inclination
53.1586°
RAAN
133.588°
Arg. of periapsis
83.8303°
True anomaly
276.26983°
Mean anomaly
276.2835°
Eccentric anomaly
276.27667°
Mean motion
3.8253 °/min
Orbital period
94.11 mins
BSTAR
0.00057582
Loading maneuver chart data...
Computing Atmospheric mass density...
Loading historical data...
Loading historical data...
Loading historical data...
Loading historical data...
Loading historical data...
Loading historical data...
Loading historical data...

Documentation

Showing up to 5 results
|